Regional Weather Roundup
Issued by NWS Charleston, SC

Current Version | Previous Version | Graphics & Text | Print | Product List | Glossary On
Versions: 1 2 3 4 5 6 7 8 9 10 11 12 13 14 15 16 17 18 19 20 21 22 23 24 25 26 27 28 29 30 31 32 33 34 35 36 37 38 39 40 41 42 43 44 45 46 47 48 49 50
000
ASUS42 KCHS 211712
RWRCHS

REGIONAL WEATHER ROUNDUP
NATIONAL WEATHER SERVICE CHARLESTON SC
100 PM EDT FRI JUL 21 2017

NOTE: "FAIR" INDICATES FEW OR NO CLOUDS BELOW 12,000 FEET WITH NO
SIGNIFICANT WEATHER AND/OR OBSTRUCTIONS TO VISIBILITY.

NOT ALL STATIONS ARE QUALITY CONTROLLED. USE DATA WITH CAUTION...
ESPECIALLY DEWPOINT OBSERVATIONS.

SCZ027-030-031-034>040-042>050-211800-
...SOUTHEAST SOUTH CAROLINA...

CITY           SKY/WX    TMP DP  RH WIND       PRES   REMARKS
N CHARLESTON   MOSUNNY   90  72  55 S8        30.05F HX  97
WATERFRONT PRK   N/A     85  78  79 S9        30.05S HX  97
JOHNS ISLAND   FAIR      88  79  74 S9G15     30.07S HX 102
PINOPOLIS        N/A     88  73  62 CALM      29.98F HX  96
MONCKS CORNER  FAIR      90  70  51 S5        30.05S HX  95
SUMMERVILLE    FAIR      90  72  55 S5        30.06S HX  96
BEAUFORT MCAS  MOSUNNY   90  80  72 SE7       30.05F HX 107
BEAUFORT ARPT  FAIR      86  75  70 S9        30.06S HX  95
HILTON HEAD IS SUNNY     86  75  70 S10       30.08S HX  95
WALTERBORO     SUNNY     90  73  58 S5        30.06S HX  98
ALLENDALE      NOT AVBL

...SOUTHERN MIDLANDS AND PEE DEE...

CITY           SKY/WX    TMP DP  RH WIND       PRES   REMARKS
GEORGETOWN     FAIR      88  72  58 CALM      30.06S HX  94
KINGSTREE      FAIR      88  73  62 CALM      30.04F HX  96
ORANGEBURG     SUNNY     90  75  61 CALM      30.05F HX 100
BARNWELL       FAIR      93  79  62 SW6       30.05S HX 110
AIKEN          FAIR      90  73  58 SE3       30.08S HX  98
MANNING        FAIR      88  68  51 W20       30.04F HX  91
COLUMBIA       MOSUNNY   93  74  53 SW6       30.03F HX 103
SUMTER         MOSUNNY   91  74  57 S5        30.02F HX 100
FLORENCE       SUNNY     90  76  63 S8        30.03F HX 101
MYRTLE BEACH   MOSUNNY   90  73  58 S13       30.06S HX  98
N MYRTLE BEACH SUNNY     86  75  69 S12       30.04F HX  95

$$

GAZ063-065-086>088-099>101-113>116-118-119-134>141-150-211800-
...SOUTHEAST GEORGIA...

CITY           SKY/WX    TMP DP  RH WIND       PRES   REMARKS
SAVANNAH ARPT  MOSUNNY   91  74  57 VRB3      30.06F HX 101
HUNTER AAF     SUNNY     90  74  60 W6        30.04F HX  99
FORT STEWART   MOSUNNY   89  75  63 S8        30.04F HX  99
STATESBORO     SUNNY     91  78  64 S7        30.05F HX 105
SYLVANIA       SUNNY     91  80  72 S5        30.06S HX 109
CLAXTON        FAIR      91  78  65 CALM      30.05F HX 104

...CSRA...CENTRAL AND FAR SOUTHEAST GEORGIA...

CITY           SKY/WX    TMP DP  RH WIND       PRES   REMARKS
THOMSON        PTSUNNY   93  73  52 W6        30.10S HX 102
AUGUSTA-BUSH   SUNNY     93  77  59 VRB3      30.03F HX 107
AUGUSTA-DANIEL SUNNY     92  73  53 SE7       30.05F HX 100
SWAINSBORO     FAIR      91  75  59 E5        30.06S HX 102
VIDALIA        SUNNY     91  77  62 SE3       30.06S HX 105
EASTMAN        FAIR      93  62  36 CALM      30.07S HX  94
HAZLEHURST     FAIR      91  78  65 CALM      30.05S HX 105
ALMA           SUNNY     90  77  65 SE7       30.06F HX 103
WAYCROSS       SUNNY     92  82  70 S7        30.06F HX 114
JESUP          NOT AVBL
BAXLEY         FAIR      90  81  74 S6        30.06S HX 108
BRUNSWICK      MOSUNNY   91  75  59 SE7       30.07F HX 102
SAINT SIMONS   SUNNY     88  74  63 S7        30.07S HX  96

$$

SCZ027-028-034-036>038-045-046-048>050-GAZ119-141-211800-
...LAKE AND SUPPLEMENTAL COASTAL OBSERVATIONS...

STATION/POSITION TIME  TEMP    WIND        PRES    WAVE   SWELL
                       AIR SEA DIR/SP/G            HT/PER HT/PER/DIR
                 (UTC) (F)     (DEG/KT/KT) (MB)    (FT/S) (FT/S/D)
WINYAH BAY       NOT AVBL
LAKE MURRAY      1620   87     190/  3/  5 1016.3S
ACE BASIN NERRS  NOT AVBL
FORT PULASKI     1636   85 86  180/  7/  9 1018.6F
SAPELO ISLAND    1600   90        CALM     1018.0

$$

ANZ835-935-AMZ111-154-330-350-352-354-370-450-454-472-211800-
...C-MAN AND BUOY OBSERVATIONS...

STATION/POSITION TIME  TEMP    WIND        PRES    WAVE   SWELL
                       AIR SEA DIR/SP/G            HT/PER HT/PER/DIR
                 (UTC) (F)     (DEG/KT/KT) (MB)    (FT/S) (FT/S/D)
BUOY 41004       1650   83 84  210/  8/ 10 1018.4S   3/ 8   2/140/ 8
BUOY 41008       1650   81 84  180/  4/  6 1018.5F   2/ 8   2/110/ 8
FOLLY BEACH CMAN 1600   84     190/ 10/ 11 1019.0R
CAPERS NEARSHORE 1608   82 84  200/ 10/ 12 1018.2F
FRIPP NEARSHORE  1608   83 85  200/ 10/ 12 1018.2F


STATION/POSITION TIME  TEMP    WIND        PRES    WAVE   SWELL
                       AIR SEA DIR/SP/G            HT/PER HT/PER/DIR
                 (UTC) (F)     (DEG/KT/KT) (MB)    (FT/S) (FT/S/D)
5E ST. MARYS GA  1630      84                N/A     2/ 8
FRYING PAN BUOY  1650   83 84  250/ 12/ 14 1017.9S   3/ 8   2/120/ 8
BUOY 41025       1650   83 85  210/ 14/ 17 1016.4F   3/ 7   2/120/ 7
CAPE LOOKOUT NC  1600   83     220/  9/ 12 1016.8S
BUOY 41002       1550   82 84  220/ 10/ 10 1019.4    3/ 8   3/120/ 8
BUOY 41010       1650   82 85  240/  6/  8 1019.1R   3/ 8   2/ 80/ 8
ST AUGUSTINE FL  1700   81 83   90/  4/  5 1018.9F


$$



USA.gov is the U.S. government's official web portal to all federal, state and local government web resources and services.